When you browse on this site, cookies collect data to enhance your experience and personalize the content and advertising you see.
Visit our Privacy Policy to learn more. By continuing to use the site, you agree to this use of cookies and data.
  • în România
  • Lista ţărilor
  • Pe 7 zile
  • Temperatura apei
  • Hartă satelitară
  • Meteo pe hartă
  • Widget-uri
  • user-avatar
    Intrare

    Meteo pe oră la Arroyo

    Astăzi, 24 Aprilie, Miercuri

    Timp Temperatura Precipitaţii Vânt Presiune Umiditate
    00:00 +3°C° 0 mm 3 m/s 685 mmHg 92%
    01:00 +3°C° 0 mm 3 m/s 685 mmHg 93%
    02:00 +3°C° 0 mm 3 m/s 685 mmHg 94%
    03:00 +2°C° 0 mm 3 m/s 685 mmHg 95%
    04:00 +3°C° 0 mm 3 m/s 686 mmHg 94%
    05:00 +3°C° 0 mm 3 m/s 686 mmHg 93%
    06:00 +3°C° 0 mm 4 m/s 686 mmHg 91%
    07:00 +5°C° 0 mm 4 m/s 687 mmHg 84%
    08:00 +6°C° 0 mm 5 m/s 687 mmHg 76%
    09:00 +8°C° 0 mm 6 m/s 687 mmHg 68%
    10:00 +10°C° 0 mm 6 m/s 687 mmHg 64%
    11:00 +11°C° 0 mm 7 m/s 688 mmHg 59%
    12:00 +14°C° 0 mm 7 m/s 688 mmHg 54%
    13:00 +14°C° 0 mm 7 m/s 688 mmHg 54%
    14:00 +14°C° 0 mm 7 m/s 688 mmHg 54%
    15:00 +15°C° 0 mm 7 m/s 688 mmHg 55%
    16:00 +14°C° 0 mm 6 m/s 688 mmHg 59%
    17:00 +13°C° 0 mm 5 m/s 688 mmHg 64%
    18:00 +12°C° 0 mm 4 m/s 687 mmHg 69%
    19:00 +11°C° 0 mm 4 m/s 688 mmHg 74%
    20:00 +10°C° 0 mm 3 m/s 688 mmHg 79%
    21:00 +10°C° 0 mm 2 m/s 688 mmHg 85%
    22:00 +10°C° 0.1 mm 3 m/s 688 mmHg 82%
    23:00 +10°C° 0.1 mm 3 m/s 689 mmHg 79%

    Mâine, 25 Aprilie, Joi

    Timp Temperatura Precipitaţii Vânt Presiune Umiditate
    00:00 +11°C° 0.1 mm 3 m/s 689 mmHg 77%
    01:00 +11°C° 0.1 mm 3 m/s 688 mmHg 78%
    02:00 +11°C° 0.1 mm 3 m/s 688 mmHg 79%
    03:00 +11°C° 0.1 mm 4 m/s 688 mmHg 80%
    04:00 +11°C° 0.4 mm 4 m/s 688 mmHg 82%
    05:00 +11°C° 0.4 mm 4 m/s 688 mmHg 83%
    06:00 +11°C° 0.4 mm 4 m/s 688 mmHg 85%
    07:00 +9°C° 0.9 mm 5 m/s 689 mmHg 87%
    08:00 +9°C° 0.9 mm 5 m/s 689 mmHg 90%
    09:00 +9°C° 0.9 mm 5 m/s 690 mmHg 92%
    10:00 +8°C° 0.3 mm 5 m/s 690 mmHg 91%
    11:00 +8°C° 0.3 mm 4 m/s 690 mmHg 90%
    12:00 +8°C° 0.3 mm 4 m/s 691 mmHg 88%
    13:00 +8°C° 0.1 mm 5 m/s 691 mmHg 86%
    14:00 +9°C° 0.1 mm 5 m/s 691 mmHg 83%
    15:00 +9°C° 0.1 mm 6 m/s 691 mmHg 80%
    16:00 +9°C° 0.2 mm 6 m/s 692 mmHg 81%
    17:00 +9°C° 0.2 mm 6 m/s 692 mmHg 81%
    18:00 +8°C° 0.2 mm 6 m/s 692 mmHg 81%
    19:00 +8°C° 0.1 mm 5 m/s 693 mmHg 84%
    20:00 +8°C° 0.1 mm 3 m/s 694 mmHg 87%
    21:00 +7°C° 0.1 mm 2 m/s 695 mmHg 90%
    22:00 +7°C° 0 mm 2 m/s 695 mmHg 91%
    23:00 +6°C° 0 mm 2 m/s 695 mmHg 92%

    Poimâine, 26 Aprilie, Vineri

    Timp Temperatura Precipitaţii Vânt Presiune Umiditate
    00:00 +6°C° 0 mm 1 m/s 696 mmHg 92%
    01:00 +6°C° 0 mm 1 m/s 696 mmHg 92%
    02:00 +6°C° 0 mm 1 m/s 696 mmHg 91%
    03:00 +5°C° 0 mm 1 m/s 696 mmHg 91%
    04:00 +5°C° 0 mm 1 m/s 696 mmHg 90%
    05:00 +6°C° 0 mm 1 m/s 696 mmHg 88%
    06:00 +6°C° 0 mm 1 m/s 697 mmHg 87%
    07:00 +8°C° 0 mm 1 m/s 697 mmHg 76%
    08:00 +10°C° 0 mm 1 m/s 698 mmHg 65%
    09:00 +12°C° 0 mm 1 m/s 699 mmHg 54%
    10:00 +14°C° 0 mm 2 m/s 699 mmHg 49%
    11:00 +15°C° 0 mm 2 m/s 699 mmHg 43%
    12:00 +16°C° 0 mm 2 m/s 699 mmHg 38%
    13:00 +17°C° 0 mm 3 m/s 699 mmHg 37%
    14:00 +17°C° 0 mm 3 m/s 698 mmHg 36%
    15:00 +18°C° 0 mm 3 m/s 698 mmHg 35%
    16:00 +17°C° 0 mm 3 m/s 698 mmHg 39%
    17:00 +17°C° 0 mm 2 m/s 698 mmHg 43%
    18:00 +16°C° 0 mm 2 m/s 698 mmHg 47%
    19:00 +14°C° 0 mm 2 m/s 698 mmHg 52%
    20:00 +12°C° 0 mm 2 m/s 698 mmHg 57%
    21:00 +9°C° 0 mm 2 m/s 699 mmHg 61%
    22:00 +9°C° 0 mm 2 m/s 699 mmHg 62%
    23:00 +9°C° 0 mm 2 m/s 699 mmHg 62%

    27 Aprilie, Sâmbătă

    Timp Temperatura Precipitaţii Vânt Presiune Umiditate
    00:00 +8°C° 0 mm 2 m/s 699 mmHg 63%
    01:00 +8°C° 0 mm 2 m/s 698 mmHg 63%
    02:00 +8°C° 0 mm 2 m/s 698 mmHg 64%
    03:00 +8°C° 0 mm 2 m/s 698 mmHg 64%
    04:00 +8°C° 0 mm 2 m/s 698 mmHg 64%
    05:00 +8°C° 0 mm 2 m/s 698 mmHg 65%
    06:00 +8°C° 0 mm 2 m/s 698 mmHg 65%
    07:00 +12°C° 0 mm 2 m/s 698 mmHg 56%
    08:00 +14°C° 0 mm 2 m/s 699 mmHg 47%
    09:00 +17°C° 0 mm 2 m/s 700 mmHg 39%
    10:00 +20°C° 0 mm 1 m/s 700 mmHg 35%
    11:00 +21°C° 0 mm 1 m/s 700 mmHg 31%
    12:00 +23°C° 0 mm 1 m/s 700 mmHg 27%
    13:00 +24°C° 0 mm 1 m/s 700 mmHg 27%
    14:00 +24°C° 0 mm 2 m/s 699 mmHg 26%
    15:00 +24°C° 0 mm 2 m/s 699 mmHg 25%
    16:00 +23°C° 0 mm 2 m/s 699 mmHg 30%
    17:00 +23°C° 0 mm 2 m/s 698 mmHg 34%
    18:00 +21°C° 0 mm 2 m/s 698 mmHg 38%
    19:00 +19°C° 0 mm 2 m/s 698 mmHg 42%
    20:00 +17°C° 0 mm 2 m/s 698 mmHg 46%
    21:00 +15°C° 0 mm 2 m/s 698 mmHg 49%
    22:00 +14°C° 0 mm 2 m/s 698 mmHg 52%
    23:00 +14°C° 0 mm 2 m/s 698 mmHg 56%

    28 Aprilie, Duminică

    Timp Temperatura Precipitaţii Vânt Presiune Umiditate
    00:00 +13°C° 0 mm 2 m/s 698 mmHg 59%
    01:00 +13°C° 0 mm 2 m/s 697 mmHg 61%
    02:00 +12°C° 0 mm 2 m/s 697 mmHg 64%
    03:00 +12°C° 0 mm 2 m/s 696 mmHg 66%
    04:00 +12°C° 0 mm 2 m/s 696 mmHg 67%
    05:00 +12°C° 0 mm 2 m/s 696 mmHg 67%
    06:00 +12°C° 0 mm 2 m/s 696 mmHg 68%
    07:00 +15°C° 0 mm 1 m/s 697 mmHg 57%
    08:00 +18°C° 0 mm 1 m/s 697 mmHg 47%
    09:00 +21°C° 0 mm 1 m/s 698 mmHg 37%
    10:00 +23°C° 0 mm 1 m/s 698 mmHg 33%
    11:00 +24°C° 0 mm 1 m/s 698 mmHg 30%
    12:00 +26°C° 0 mm 1 m/s 698 mmHg 27%
    13:00 +26°C° 0 mm 1 m/s 697 mmHg 26%
    14:00 +26°C° 0 mm 1 m/s 697 mmHg 25%
    15:00 +27°C° 0 mm 1 m/s 696 mmHg 25%
    16:00 +26°C° 0 mm 1 m/s 696 mmHg 29%
    17:00 +25°C° 0 mm 1 m/s 695 mmHg 32%
    18:00 +24°C° 0 mm 1 m/s 695 mmHg 36%
    19:00 +21°C° 0 mm 1 m/s 695 mmHg 41%
    20:00 +18°C° 0 mm 2 m/s 695 mmHg 45%
    21:00 +16°C° 0 mm 2 m/s 695 mmHg 50%
    22:00 +16°C° 0 mm 2 m/s 695 mmHg 53%
    23:00 +15°C° 0 mm 2 m/s 695 mmHg 57%

    29 Aprilie, Luni

    Timp Temperatura Precipitaţii Vânt Presiune Umiditate
    00:00 +14°C° 0 mm 2 m/s 695 mmHg 60%
    01:00 +14°C° 0 mm 2 m/s 694 mmHg 63%
    02:00 +13°C° 0 mm 2 m/s 694 mmHg 66%
    03:00 +13°C° 0 mm 2 m/s 693 mmHg 69%
    04:00 +13°C° 0 mm 2 m/s 693 mmHg 69%
    05:00 +12°C° 0 mm 2 m/s 693 mmHg 68%
    06:00 +12°C° 0 mm 2 m/s 693 mmHg 68%
    07:00 +15°C° 0 mm 1 m/s 693 mmHg 57%
    08:00 +19°C° 0 mm 1 m/s 693 mmHg 45%
    09:00 +21°C° 0 mm 1 m/s 694 mmHg 34%
    10:00 +23°C° 0 mm 1 m/s 694 mmHg 30%
    11:00 +25°C° 0 mm 1 m/s 693 mmHg 27%
    12:00 +26°C° 0 mm 1 m/s 693 mmHg 23%
    13:00 +26°C° 0 mm 2 m/s 693 mmHg 23%
    14:00 +27°C° 0 mm 2 m/s 692 mmHg 22%
    15:00 +27°C° 0 mm 2 m/s 692 mmHg 21%
    16:00 +26°C° 0 mm 2 m/s 691 mmHg 25%
    17:00 +25°C° 0 mm 2 m/s 691 mmHg 29%
    18:00 +24°C° 0 mm 1 m/s 691 mmHg 33%
    19:00 +22°C° 0 mm 1 m/s 691 mmHg 38%
    20:00 +20°C° 0 mm 1 m/s 691 mmHg 44%
    21:00 +18°C° 0 mm 1 m/s 691 mmHg 49%
    22:00 +16°C° 0 mm 1 m/s 690 mmHg 53%
    23:00 +15°C° 0 mm 1 m/s 690 mmHg 57%
    Arată mai mult